• In Lithuania
  • List of Countries
  • For 7 days
  • Water Temperature
  • Satellite Maps
  • Weather Map
  • Weather Widgets
  • user-avatar
    Login

    Hourly Weather Nevdahin

    Today, 21 October, Sunday

    Time Temperature Precipitation Wind Pressure Humidity
    00:00 +17°C° 0 mm 0 mps 752 mmHg 65%
    01:00 +17°C° 0 mm 0 mps 752 mmHg 67%
    02:00 +16°C° 0 mm 0 mps 752 mmHg 69%
    03:00 +16°C° 0 mm 0 mps 752 mmHg 71%
    04:00 +16°C° 0 mm 0 mps 752 mmHg 72%
    05:00 +15°C° 0 mm 0 mps 752 mmHg 74%
    06:00 +15°C° 0 mm 0 mps 752 mmHg 75%
    07:00 +16°C° 0 mm 0 mps 752 mmHg 70%
    08:00 +19°C° 0 mm 1 mps 753 mmHg 65%
    09:00 +21°C° 0 mm 1 mps 753 mmHg 60%
    10:00 +22°C° 0 mm 1 mps 753 mmHg 55%
    11:00 +23°C° 0 mm 2 mps 753 mmHg 51%
    12:00 +25°C° 0 mm 2 mps 753 mmHg 46%
    13:00 +25°C° 0 mm 2 mps 753 mmHg 45%
    14:00 +25°C° 0 mm 3 mps 753 mmHg 44%
    15:00 +26°C° 0 mm 3 mps 753 mmHg 42%
    16:00 +24°C° 0 mm 3 mps 753 mmHg 47%
    17:00 +22°C° 0 mm 3 mps 753 mmHg 51%
    18:00 +21°C° 0 mm 3 mps 753 mmHg 56%
    19:00 +20°C° 0 mm 3 mps 753 mmHg 59%
    20:00 +20°C° 0 mm 3 mps 753 mmHg 62%
    21:00 +19°C° 0 mm 3 mps 753 mmHg 66%
    22:00 +18°C° 0 mm 4 mps 753 mmHg 68%
    23:00 +18°C° 0 mm 4 mps 753 mmHg 70%

    Tomorrow, 22 October, Monday

    Time Temperature Precipitation Wind Pressure Humidity
    00:00 +17°C° 0 mm 4 mps 753 mmHg 72%
    01:00 +17°C° 0 mm 4 mps 753 mmHg 74%
    02:00 +17°C° 0 mm 4 mps 753 mmHg 75%
    03:00 +17°C° 0 mm 4 mps 753 mmHg 77%
    04:00 +15°C° 0 mm 4 mps 753 mmHg 78%
    05:00 +15°C° 0 mm 4 mps 754 mmHg 78%
    06:00 +15°C° 0 mm 4 mps 754 mmHg 78%
    07:00 +15°C° 0.1 mm 4 mps 754 mmHg 76%
    08:00 +17°C° 0.1 mm 4 mps 754 mmHg 74%
    09:00 +17°C° 0.1 mm 4 mps 755 mmHg 73%
    10:00 +18°C° 0.2 mm 4 mps 755 mmHg 71%
    11:00 +18°C° 0.2 mm 3 mps 755 mmHg 69%
    12:00 +19°C° 0.2 mm 3 mps 755 mmHg 67%
    13:00 +19°C° 0.1 mm 3 mps 755 mmHg 65%
    14:00 +20°C° 0.1 mm 3 mps 754 mmHg 63%
    15:00 +20°C° 0.1 mm 3 mps 754 mmHg 61%
    16:00 +20°C° 0 mm 3 mps 754 mmHg 65%
    17:00 +19°C° 0 mm 3 mps 754 mmHg 69%
    18:00 +18°C° 0 mm 3 mps 754 mmHg 73%
    19:00 +17°C° 0 mm 3 mps 755 mmHg 76%
    20:00 +17°C° 0 mm 3 mps 755 mmHg 80%
    21:00 +16°C° 0 mm 3 mps 755 mmHg 83%
    22:00 +16°C° 0 mm 3 mps 755 mmHg 84%
    23:00 +15°C° 0 mm 2 mps 755 mmHg 85%

    Day after tomorrow, 23 October, Tuesday

    Time Temperature Precipitation Wind Pressure Humidity
    00:00 +15°C° 0 mm 2 mps 754 mmHg 86%
    01:00 +15°C° 0 mm 2 mps 754 mmHg 87%
    02:00 +15°C° 0 mm 2 mps 754 mmHg 88%
    03:00 +15°C° 0 mm 2 mps 754 mmHg 88%
    04:00 +14°C° 0.1 mm 2 mps 754 mmHg 89%
    05:00 +14°C° 0.1 mm 2 mps 754 mmHg 90%
    06:00 +14°C° 0.1 mm 1 mps 754 mmHg 91%
    07:00 +15°C° 0.2 mm 2 mps 754 mmHg 87%
    08:00 +16°C° 0.2 mm 2 mps 754 mmHg 84%
    09:00 +17°C° 0.2 mm 2 mps 754 mmHg 80%
    10:00 +18°C° 0.1 mm 2 mps 753 mmHg 73%
    11:00 +20°C° 0.1 mm 2 mps 753 mmHg 67%
    12:00 +21°C° 0.1 mm 3 mps 753 mmHg 61%
    13:00 +21°C° 0.1 mm 3 mps 752 mmHg 59%
    14:00 +21°C° 0.1 mm 3 mps 752 mmHg 57%
    15:00 +22°C° 0.1 mm 3 mps 752 mmHg 55%
    16:00 +21°C° 0.1 mm 3 mps 752 mmHg 59%
    17:00 +19°C° 0.1 mm 2 mps 752 mmHg 63%
    18:00 +18°C° 0.1 mm 2 mps 751 mmHg 68%
    19:00 +18°C° 0.3 mm 2 mps 751 mmHg 70%
    20:00 +18°C° 0.3 mm 1 mps 751 mmHg 73%
    21:00 +18°C° 0.3 mm 1 mps 751 mmHg 75%
    22:00 +16°C° 0 mm 2 mps 751 mmHg 78%
    23:00 +16°C° 0 mm 2 mps 751 mmHg 80%

    24 October, Wednesday

    Time Temperature Precipitation Wind Pressure Humidity
    00:00 +16°C° 0 mm 2 mps 750 mmHg 82%
    01:00 +15°C° 0 mm 2 mps 750 mmHg 84%
    02:00 +15°C° 0 mm 2 mps 750 mmHg 86%
    03:00 +15°C° 0 mm 2 mps 750 mmHg 88%
    04:00 +15°C° 0.1 mm 2 mps 749 mmHg 88%
    05:00 +15°C° 0.1 mm 2 mps 749 mmHg 89%
    06:00 +14°C° 0.1 mm 2 mps 749 mmHg 90%
    07:00 +15°C° 0.2 mm 2 mps 748 mmHg 86%
    08:00 +16°C° 0.2 mm 2 mps 748 mmHg 83%
    09:00 +16°C° 0.2 mm 2 mps 748 mmHg 80%
    10:00 +17°C° 0.3 mm 3 mps 747 mmHg 77%
    11:00 +18°C° 0.3 mm 3 mps 747 mmHg 74%
    12:00 +18°C° 0.3 mm 3 mps 746 mmHg 71%
    13:00 +19°C° 0.2 mm 3 mps 745 mmHg 68%
    14:00 +19°C° 0.2 mm 4 mps 745 mmHg 65%
    15:00 +20°C° 0.2 mm 4 mps 744 mmHg 62%
    16:00 +19°C° 0.1 mm 4 mps 743 mmHg 65%
    17:00 +19°C° 0.1 mm 4 mps 743 mmHg 69%
    18:00 +18°C° 0.1 mm 3 mps 742 mmHg 72%
    19:00 +18°C° 0.2 mm 3 mps 742 mmHg 72%
    20:00 +18°C° 0.2 mm 3 mps 742 mmHg 73%
    21:00 +17°C° 0.2 mm 3 mps 741 mmHg 74%
    22:00 +17°C° 0.1 mm 3 mps 740 mmHg 75%
    23:00 +17°C° 0.1 mm 3 mps 740 mmHg 76%

    25 October, Thursday

    Time Temperature Precipitation Wind Pressure Humidity
    00:00 +16°C° 0.1 mm 2 mps 739 mmHg 78%
    01:00 +16°C° 0.6 mm 2 mps 739 mmHg 81%
    02:00 +16°C° 0.6 mm 2 mps 739 mmHg 84%
    03:00 +16°C° 0.6 mm 2 mps 739 mmHg 87%
    04:00 +14°C° 0.2 mm 3 mps 739 mmHg 87%
    05:00 +14°C° 0.2 mm 3 mps 739 mmHg 86%
    06:00 +14°C° 0.2 mm 4 mps 739 mmHg 86%
    07:00 +14°C° 0.1 mm 3 mps 739 mmHg 82%
    08:00 +14°C° 0.1 mm 3 mps 739 mmHg 78%
    09:00 +14°C° 0.1 mm 3 mps 739 mmHg 74%
    10:00 +14°C° 0.3 mm 3 mps 739 mmHg 75%
    11:00 +14°C° 0.3 mm 3 mps 739 mmHg 76%
    12:00 +14°C° 0.3 mm 4 mps 739 mmHg 76%
    13:00 +13°C° 0.4 mm 4 mps 739 mmHg 78%
    14:00 +13°C° 0.4 mm 4 mps 740 mmHg 80%
    15:00 +13°C° 0.4 mm 5 mps 740 mmHg 81%
    16:00 +12°C° 0.2 mm 5 mps 740 mmHg 82%
    17:00 +12°C° 0.2 mm 5 mps 741 mmHg 82%
    18:00 +10°C° 0.2 mm 5 mps 741 mmHg 83%
    19:00 +10°C° 0.3 mm 6 mps 742 mmHg 81%
    20:00 +9°C° 0.3 mm 6 mps 743 mmHg 78%
    21:00 +9°C° 0.3 mm 6 mps 743 mmHg 76%
    22:00 +8°C° 0.4 mm 6 mps 744 mmHg 74%
    23:00 +8°C° 0.4 mm 6 mps 744 mmHg 71%

    26 October, Friday

    Time Temperature Precipitation Wind Pressure Humidity
    00:00 +7°C° 0.4 mm 6 mps 745 mmHg 69%
    01:00 +7°C° 0.1 mm 6 mps 745 mmHg 69%
    02:00 +7°C° 0.1 mm 5 mps 745 mmHg 68%
    03:00 +7°C° 0.1 mm 5 mps 746 mmHg 68%
    04:00 +7°C° 0 mm 5 mps 746 mmHg 68%
    05:00 +6°C° 0 mm 4 mps 746 mmHg 68%
    06:00 +7°C° 0 mm 3 mps 747 mmHg 68%
    07:00 +7°C° 0 mm 4 mps 747 mmHg 66%
    08:00 +8°C° 0 mm 5 mps 748 mmHg 64%
    09:00 +8°C° 0 mm 5 mps 748 mmHg 62%
    10:00 +9°C° 0 mm 5 mps 748 mmHg 59%
    11:00 +10°C° 0 mm 6 mps 749 mmHg 57%
    12:00 +10°C° 0 mm 6 mps 749 mmHg 54%
    13:00 +11°C° 0 mm 6 mps 749 mmHg 51%
    14:00 +11°C° 0 mm 6 mps 749 mmHg 49%
    15:00 +11°C° 0 mm 6 mps 749 mmHg 46%
    16:00 +10°C° 0 mm 5 mps 750 mmHg 49%
    17:00 +11°C° 0 mm 4 mps 751 mmHg 52%
    18:00 +10°C° 0 mm 3 mps 751 mmHg 55%
    19:00 +8°C° 0 mm 4 mps 752 mmHg 58%
    20:00 +7°C° 0 mm 4 mps 752 mmHg 60%
    21:00 +7°C° 0 mm 4 mps 753 mmHg 62%
    22:00 +7°C° 0 mm 3 mps 753 mmHg 64%
    23:00 +7°C° 0 mm 3 mps 754 mmHg 66%
    Show more